contact:dominique.lefevre@mio.osupytheas.fr, maurice.libes@osupytheas.fr, didier.mallarino@osupytheas.fr
Project:EMSO http://www.emso-fr.org/EMSO-France
Depth: 2436.0 m
Title:EMSO Ligure Ouest : Data MII capteur OXYGEN
DateTime,Latitude,Longitude,Optode-Type,Optode_Serial,Oxygen,Saturation_Oxygen,Temperature
DateTime,Latitude,Longitude,Optode-Type,Optode_Serial,µmol.l-1,%,degC
2017-12-06T00:00:45,42.805,6.029,4330,1995,198.192,60.607,13.286
2017-12-06T00:03:45,42.805,6.029,4330,1995,198.243,60.622,13.286
2017-12-06T00:06:45,42.805,6.029,4330,1995,198.258,60.626,13.285
2017-12-06T00:09:45,42.805,6.029,4330,1995,198.197,60.608,13.285
2017-12-06T00:12:45,42.805,6.029,4330,1995,198.264,60.628,13.285
2017-12-06T00:15:45,42.805,6.029,4330,1995,198.220,60.615,13.285
2017-12-06T00:18:45,42.805,6.029,4330,1995,198.209,60.612,13.285
2017-12-06T00:21:45,42.805,6.029,4330,1995,198.220,60.615,13.285
2017-12-06T00:24:45,42.805,6.029,4330,1995,198.150,60.594,13.285
2017-12-06T00:27:45,42.805,6.029,4330,1995,198.175,60.601,13.286
2017-12-06T00:30:45,42.805,6.029,4330,1995,198.119,60.584,13.285
2017-12-06T00:33:45,42.805,6.029,4330,1995,198.192,60.606,13.285
2017-12-06T00:36:45,42.805,6.029,4330,1995,198.126,60.587,13.286
2017-12-06T00:39:45,42.805,6.029,4330,1995,198.182,60.604,13.286
2017-12-06T00:42:45,42.805,6.029,4330,1995,198.171,60.600,13.285
2017-12-06T00:45:45,42.805,6.029,4330,1995,198.197,60.608,13.286
2017-12-06T00:48:45,42.805,6.029,4330,1995,198.197,60.608,13.286
2017-12-06T00:51:45,42.805,6.029,4330,1995,198.241,60.622,13.286
2017-12-06T00:54:45,42.805,6.029,4330,1995,198.236,60.620,13.285
2017-12-06T00:57:45,42.805,6.029,4330,1995,198.261,60.627,13.285
2017-12-06T01:00:45,42.805,6.029,4330,1995,198.192,60.606,13.285
2017-12-06T01:03:45,42.805,6.029,4330,1995,198.169,60.599,13.285
2017-12-06T01:06:45,42.805,6.029,4330,1995,198.241,60.621,13.285
2017-12-06T01:09:45,42.805,6.029,4330,1995,198.194,60.607,13.285
2017-12-06T01:12:45,42.805,6.029,4330,1995,198.194,60.607,13.286
2017-12-06T01:15:45,42.805,6.029,4330,1995,198.210,60.612,13.286
2017-12-06T01:18:45,42.805,6.029,4330,1995,198.221,60.615,13.286
2017-12-06T01:21:45,42.805,6.029,4330,1995,198.220,60.616,13.286
2017-12-06T01:24:45,42.805,6.029,4330,1995,198.252,60.625,13.285
2017-12-06T01:27:45,42.805,6.029,4330,1995,198.226,60.617,13.285
2017-12-06T01:30:45,42.805,6.029,4330,1995,198.217,60.614,13.285
2017-12-06T01:33:45,42.805,6.029,4330,1995,198.210,60.612,13.285
2017-12-06T01:36:45,42.805,6.029,4330,1995,198.216,60.614,13.285
2017-12-06T01:39:45,42.805,6.029,4330,1995,198.245,60.622,13.285
2017-12-06T01:42:45,42.805,6.029,4330,1995,198.197,60.608,13.285
2017-12-06T01:45:45,42.805,6.029,4330,1995,198.189,60.605,13.285
2017-12-06T01:48:45,42.805,6.029,4330,1995,198.195,60.607,13.285
2017-12-06T01:51:45,42.805,6.029,4330,1995,198.262,60.628,13.285
2017-12-06T01:54:45,42.805,6.029,4330,1995,198.256,60.626,13.285
2017-12-06T01:57:45,42.805,6.029,4330,1995,198.210,60.612,13.285
2017-12-06T02:00:45,42.805,6.029,4330,1995,198.259,60.627,13.285
2017-12-06T02:03:45,42.805,6.029,4330,1995,198.264,60.628,13.285
2017-12-06T02:06:45,42.805,6.029,4330,1995,198.238,60.620,13.285
2017-12-06T02:09:45,42.805,6.029,4330,1995,198.220,60.615,13.285
2017-12-06T02:12:45,42.805,6.029,4330,1995,198.162,60.597,13.285
2017-12-06T02:15:45,42.805,6.029,4330,1995,198.191,60.606,13.285
2017-12-06T02:18:45,42.805,6.029,4330,1995,198.195,60.607,13.285
2017-12-06T02:21:45,42.805,6.029,4330,1995,198.236,60.620,13.285
2017-12-06T02:24:45,42.805,6.029,4330,1995,198.211,60.612,13.285
2017-12-06T02:27:45,42.805,6.029,4330,1995,198.210,60.612,13.285
2017-12-06T02:30:45,42.805,6.029,4330,1995,198.213,60.613,13.285
2017-12-06T02:33:45,42.805,6.029,4330,1995,198.262,60.628,13.285
2017-12-06T02:36:45,42.805,6.029,4330,1995,198.252,60.624,13.285
2017-12-06T02:39:45,42.805,6.029,4330,1995,198.245,60.623,13.285
2017-12-06T02:42:45,42.805,6.029,4330,1995,198.320,60.645,13.285
2017-12-06T02:45:45,42.805,6.029,4330,1995,198.319,60.645,13.285
2017-12-06T02:48:45,42.805,6.029,4330,1995,198.330,60.649,13.285
2017-12-06T02:51:45,42.805,6.029,4330,1995,198.294,60.638,13.285
2017-12-06T02:54:45,42.805,6.029,4330,1995,198.240,60.621,13.285
2017-12-06T02:57:45,42.805,6.029,4330,1995,198.268,60.630,13.285
2017-12-06T03:00:45,42.805,6.029,4330,1995,198.232,60.619,13.285
2017-12-06T03:03:45,42.805,6.029,4330,1995,198.241,60.622,13.286
2017-12-06T03:06:45,42.805,6.029,4330,1995,198.250,60.624,13.286
2017-12-06T03:09:45,42.805,6.029,4330,1995,198.240,60.621,13.285
2017-12-06T03:12:45,42.805,6.029,4330,1995,198.260,60.627,13.285
2017-12-06T03:15:45,42.805,6.029,4330,1995,198.223,60.616,13.285
2017-12-06T03:18:45,42.805,6.029,4330,1995,198.254,60.625,13.285
2017-12-06T03:21:45,42.805,6.029,4330,1995,198.231,60.618,13.285
2017-12-06T03:24:45,42.805,6.029,4330,1995,198.227,60.617,13.285
2017-12-06T03:27:45,42.805,6.029,4330,1995,198.236,60.620,13.285
2017-12-06T03:30:45,42.805,6.029,4330,1995,198.234,60.619,13.285
2017-12-06T03:33:45,42.805,6.029,4330,1995,198.318,60.645,13.285
2017-12-06T03:36:45,42.805,6.029,4330,1995,198.247,60.623,13.285
2017-12-06T03:39:45,42.805,6.029,4330,1995,198.281,60.634,13.285
2017-12-06T03:42:45,42.805,6.029,4330,1995,198.266,60.629,13.285
2017-12-06T03:45:45,42.805,6.029,4330,1995,198.328,60.648,13.285
2017-12-06T03:48:45,42.805,6.029,4330,1995,198.281,60.634,13.286
2017-12-06T03:51:45,42.805,6.029,4330,1995,198.258,60.627,13.285
2017-12-06T03:54:45,42.805,6.029,4330,1995,198.189,60.605,13.285
2017-12-06T03:57:45,42.805,6.029,4330,1995,198.210,60.612,13.285
2017-12-06T04:00:45,42.805,6.029,4330,1995,198.206,60.611,13.285
2017-12-06T04:03:45,42.805,6.029,4330,1995,198.234,60.619,13.285
2017-12-06T04:06:45,42.805,6.029,4330,1995,198.277,60.633,13.286
2017-12-06T04:09:45,42.805,6.029,4330,1995,198.221,60.615,13.285
2017-12-06T04:12:45,42.805,6.029,4330,1995,198.270,60.630,13.285
2017-12-06T04:15:45,42.805,6.029,4330,1995,198.267,60.629,13.285
2017-12-06T04:18:45,42.805,6.029,4330,1995,198.198,60.608,13.285
2017-12-06T04:21:45,42.805,6.029,4330,1995,198.198,60.608,13.285
2017-12-06T04:24:45,42.805,6.029,4330,1995,198.207,60.611,13.285
2017-12-06T04:27:45,42.805,6.029,4330,1995,198.205,60.610,13.285
2017-12-06T04:30:45,42.805,6.029,4330,1995,198.204,60.610,13.285
2017-12-06T04:33:45,42.805,6.029,4330,1995,198.236,60.620,13.285
2017-12-06T04:36:45,42.805,6.029,4330,1995,198.252,60.625,13.285
2017-12-06T04:39:45,42.805,6.029,4330,1995,198.274,60.631,13.285
2017-12-06T04:42:45,42.805,6.029,4330,1995,198.296,60.638,13.285
2017-12-06T04:45:45,42.805,6.029,4330,1995,198.223,60.616,13.285
2017-12-06T04:48:45,42.805,6.029,4330,1995,198.169,60.599,13.285
2017-12-06T04:51:45,42.805,6.029,4330,1995,198.151,60.594,13.285
2017-12-06T04:54:45,42.805,6.029,4330,1995,198.105,60.579,13.285
2017-12-06T04:57:45,42.805,6.029,4330,1995,198.154,60.595,13.286
2017-12-06T05:00:45,42.805,6.029,4330,1995,198.160,60.597,13.285
2017-12-06T05:03:45,42.805,6.029,4330,1995,198.089,60.575,13.286
2017-12-06T05:06:45,42.805,6.029,4330,1995,198.041,60.560,13.285
2017-12-06T05:09:45,42.805,6.029,4330,1995,197.972,60.539,13.285
2017-12-06T05:12:45,42.805,6.029,4330,1995,198.002,60.548,13.286
2017-12-06T05:15:45,42.805,6.029,4330,1995,197.865,60.507,13.286
2017-12-06T05:18:45,42.805,6.029,4330,1995,197.937,60.528,13.285
2017-12-06T05:21:45,42.805,6.029,4330,1995,197.899,60.517,13.286
2017-12-06T05:24:45,42.805,6.029,4330,1995,197.881,60.511,13.285
2017-12-06T05:27:45,42.805,6.029,4330,1995,197.916,60.522,13.286
2017-12-06T05:30:45,42.805,6.029,4330,1995,197.874,60.509,13.285
2017-12-06T05:33:45,42.805,6.029,4330,1995,197.902,60.518,13.285
2017-12-06T05:36:45,42.805,6.029,4330,1995,197.943,60.531,13.286
2017-12-06T05:39:45,42.805,6.029,4330,1995,197.854,60.503,13.286
2017-12-06T05:42:45,42.805,6.029,4330,1995,197.825,60.494,13.285
2017-12-06T05:45:45,42.805,6.029,4330,1995,197.762,60.475,13.285
2017-12-06T05:48:45,42.805,6.029,4330,1995,197.785,60.482,13.285
2017-12-06T05:51:45,42.805,6.029,4330,1995,197.810,60.490,13.285
2017-12-06T05:54:45,42.805,6.029,4330,1995,197.678,60.449,13.285
2017-12-06T05:57:45,42.805,6.029,4330,1995,197.715,60.460,13.285
2017-12-06T06:00:45,42.805,6.029,4330,1995,197.668,60.446,13.285
2017-12-06T06:03:45,42.805,6.029,4330,1995,197.730,60.465,13.285
2017-12-06T06:06:45,42.805,6.029,4330,1995,197.681,60.450,13.286
2017-12-06T06:09:45,42.805,6.029,4330,1995,197.643,60.439,13.286
2017-12-06T06:12:45,42.805,6.029,4330,1995,197.630,60.435,13.286
2017-12-06T06:15:45,42.805,6.029,4330,1995,197.592,60.423,13.285
2017-12-06T06:18:45,42.805,6.029,4330,1995,197.634,60.436,13.285
2017-12-06T06:21:45,42.805,6.029,4330,1995,197.578,60.419,13.285
2017-12-06T06:24:45,42.805,6.029,4330,1995,197.500,60.395,13.286
2017-12-06T06:27:45,42.805,6.029,4330,1995,197.512,60.399,13.286
2017-12-06T06:30:45,42.805,6.029,4330,1995,197.455,60.381,13.286
2017-12-06T06:33:45,42.805,6.029,4330,1995,197.512,60.399,13.286
2017-12-06T06:36:45,42.805,6.029,4330,1995,197.392,60.362,13.286
2017-12-06T06:39:45,42.805,6.029,4330,1995,197.508,60.398,13.286
2017-12-06T06:42:45,42.805,6.029,4330,1995,197.427,60.373,13.286
2017-12-06T06:45:45,42.805,6.029,4330,1995,197.414,60.369,13.286
2017-12-06T06:48:45,42.805,6.029,4330,1995,197.427,60.373,13.286
2017-12-06T06:51:45,42.805,6.029,4330,1995,197.406,60.366,13.286
2017-12-06T06:54:45,42.805,6.029,4330,1995,197.394,60.363,13.286
2017-12-06T06:57:45,42.805,6.029,4330,1995,197.451,60.380,13.286
2017-12-06T07:00:45,42.805,6.029,4330,1995,197.528,60.404,13.286
2017-12-06T07:03:45,42.805,6.029,4330,1995,197.479,60.389,13.286
2017-12-06T07:06:45,42.805,6.029,4330,1995,197.377,60.358,13.286
2017-12-06T07:09:45,42.805,6.029,4330,1995,197.407,60.367,13.286
2017-12-06T07:12:45,42.805,6.029,4330,1995,197.411,60.368,13.286
2017-12-06T07:15:45,42.805,6.029,4330,1995,197.382,60.359,13.286
2017-12-06T07:18:45,42.805,6.029,4330,1995,197.354,60.350,13.285
2017-12-06T07:21:45,42.805,6.029,4330,1995,197.367,60.354,13.286
2017-12-06T07:24:45,42.805,6.029,4330,1995,197.315,60.338,13.285
2017-12-06T07:27:45,42.805,6.029,4330,1995,197.340,60.346,13.286
2017-12-06T07:30:45,42.805,6.029,4330,1995,197.393,60.362,13.286
2017-12-06T07:33:45,42.805,6.029,4330,1995,197.360,60.352,13.285
2017-12-06T07:36:45,42.805,6.029,4330,1995,197.296,60.333,13.286
2017-12-06T07:39:45,42.805,6.029,4330,1995,197.335,60.345,13.286
2017-12-06T07:42:45,42.805,6.029,4330,1995,197.271,60.325,13.285
2017-12-06T07:45:45,42.805,6.029,4330,1995,197.261,60.322,13.285
2017-12-06T07:48:45,42.805,6.029,4330,1995,197.274,60.326,13.285
2017-12-06T07:51:45,42.805,6.029,4330,1995,197.234,60.314,13.286
2017-12-06T07:54:45,42.805,6.029,4330,1995,197.281,60.328,13.286
2017-12-06T07:57:45,42.805,6.029,4330,1995,197.239,60.315,13.286
2017-12-06T08:00:45,42.805,6.029,4330,1995,197.222,60.310,13.286
2017-12-06T08:03:45,42.805,6.029,4330,1995,197.269,60.324,13.286
2017-12-06T08:06:45,42.805,6.029,4330,1995,197.216,60.308,13.286
2017-12-06T08:09:45,42.805,6.029,4330,1995,197.177,60.296,13.286
2017-12-06T08:12:45,42.805,6.029,4330,1995,197.209,60.306,13.285
2017-12-06T08:15:45,42.805,6.029,4330,1995,197.179,60.297,13.286
2017-12-06T08:18:45,42.805,6.029,4330,1995,197.244,60.317,13.286
2017-12-06T08:21:45,42.805,6.029,4330,1995,197.195,60.302,13.286
2017-12-06T08:24:45,42.805,6.029,4330,1995,197.179,60.297,13.286
2017-12-06T08:27:45,42.805,6.029,4330,1995,197.132,60.283,13.286
2017-12-06T08:30:45,42.805,6.029,4330,1995,197.114,60.277,13.286
2017-12-06T08:33:45,42.805,6.029,4330,1995,197.078,60.267,13.286
2017-12-06T08:36:45,42.805,6.029,4330,1995,197.082,60.267,13.286
2017-12-06T08:39:45,42.805,6.029,4330,1995,197.143,60.286,13.286
2017-12-06T08:42:45,42.805,6.029,4330,1995,197.180,60.297,13.286
2017-12-06T08:45:45,42.805,6.029,4330,1995,197.171,60.294,13.286
2017-12-06T08:48:45,42.805,6.029,4330,1995,197.189,60.300,13.286
2017-12-06T08:51:45,42.805,6.029,4330,1995,197.078,60.266,13.286
2017-12-06T08:54:45,42.805,6.029,4330,1995,197.103,60.274,13.286
2017-12-06T08:57:45,42.805,6.029,4330,1995,197.034,60.253,13.286
2017-12-06T09:00:45,42.805,6.029,4330,1995,197.056,60.259,13.286
2017-12-06T09:03:45,42.805,6.029,4330,1995,197.083,60.268,13.286
2017-12-06T09:06:45,42.805,6.029,4330,1995,197.046,60.256,13.286
2017-12-06T09:09:45,42.805,6.029,4330,1995,197.070,60.264,13.286
2017-12-06T09:12:45,42.805,6.029,4330,1995,197.039,60.254,13.285
2017-12-06T09:15:45,42.805,6.029,4330,1995,197.041,60.255,13.286
2017-12-06T09:18:45,42.805,6.029,4330,1995,197.014,60.246,13.286
2017-12-06T09:21:45,42.805,6.029,4330,1995,197.082,60.267,13.286
2017-12-06T09:24:45,42.805,6.029,4330,1995,197.092,60.270,13.286
2017-12-06T09:27:45,42.805,6.029,4330,1995,197.085,60.268,13.286
2017-12-06T09:30:45,42.805,6.029,4330,1995,197.124,60.280,13.286
2017-12-06T09:33:45,42.805,6.029,4330,1995,197.183,60.298,13.285
2017-12-06T09:36:45,42.805,6.029,4330,1995,197.269,60.324,13.285
2017-12-06T09:39:45,42.805,6.029,4330,1995,197.270,60.324,13.286
2017-12-06T09:42:45,42.805,6.029,4330,1995,197.222,60.310,13.286
2017-12-06T09:45:45,42.805,6.029,4330,1995,197.263,60.323,13.286
2017-12-06T09:48:45,42.805,6.029,4330,1995,197.248,60.318,13.286
2017-12-06T09:51:45,42.805,6.029,4330,1995,197.206,60.305,13.286
2017-12-06T09:54:45,42.805,6.029,4330,1995,197.144,60.286,13.286
2017-12-06T09:57:45,42.805,6.029,4330,1995,197.079,60.266,13.286
2017-12-06T10:00:45,42.805,6.029,4330,1995,197.151,60.288,13.286
2017-12-06T10:03:45,42.805,6.029,4330,1995,197.156,60.290,13.286
2017-12-06T10:06:45,42.805,6.029,4330,1995,197.179,60.297,13.286
2017-12-06T10:09:45,42.805,6.029,4330,1995,197.089,60.270,13.286
2017-12-06T10:12:45,42.805,6.029,4330,1995,197.078,60.266,13.286
2017-12-06T10:15:45,42.805,6.029,4330,1995,197.186,60.299,13.286
2017-12-06T10:18:45,42.805,6.029,4330,1995,197.239,60.315,13.285
2017-12-06T10:21:45,42.805,6.029,4330,1995,197.126,60.281,13.286
2017-12-06T10:24:45,42.805,6.029,4330,1995,196.873,60.204,13.286
2017-12-06T10:27:45,42.805,6.029,4330,1995,197.015,60.247,13.286
2017-12-06T10:30:45,42.805,6.029,4330,1995,197.076,60.266,13.286
2017-12-06T10:33:45,42.805,6.029,4330,1995,197.124,60.280,13.286
2017-12-06T10:36:45,42.805,6.029,4330,1995,197.118,60.278,13.286
2017-12-06T10:39:45,42.805,6.029,4330,1995,197.232,60.313,13.286
2017-12-06T10:42:45,42.805,6.029,4330,1995,197.165,60.293,13.286
2017-12-06T10:45:45,42.805,6.029,4330,1995,197.166,60.293,13.286
2017-12-06T10:48:45,42.805,6.029,4330,1995,197.161,60.292,13.286
2017-12-06T10:51:45,42.805,6.029,4330,1995,197.099,60.273,13.286
2017-12-06T10:54:45,42.805,6.029,4330,1995,197.050,60.258,13.286
2017-12-06T10:57:45,42.805,6.029,4330,1995,197.129,60.282,13.286
2017-12-06T11:00:45,42.805,6.029,4330,1995,197.124,60.280,13.286
2017-12-06T11:03:45,42.805,6.029,4330,1995,197.106,60.275,13.286
2017-12-06T11:06:45,42.805,6.029,4330,1995,197.108,60.275,13.286
2017-12-06T11:09:45,42.805,6.029,4330,1995,197.108,60.275,13.286
2017-12-06T11:12:45,42.805,6.029,4330,1995,197.185,60.299,13.286
2017-12-06T11:15:45,42.805,6.029,4330,1995,197.172,60.295,13.286
2017-12-06T11:18:45,42.805,6.029,4330,1995,197.190,60.300,13.286
2017-12-06T11:21:45,42.805,6.029,4330,1995,197.126,60.281,13.286
2017-12-06T11:24:45,42.805,6.029,4330,1995,197.195,60.302,13.286
2017-12-06T11:27:45,42.805,6.029,4330,1995,197.139,60.285,13.286
2017-12-06T11:30:45,42.805,6.029,4330,1995,197.162,60.292,13.286
2017-12-06T11:33:45,42.805,6.029,4330,1995,197.048,60.258,13.286
2017-12-06T11:36:45,42.805,6.029,4330,1995,197.005,60.244,13.286
2017-12-06T11:39:45,42.805,6.029,4330,1995,196.990,60.240,13.286
2017-12-06T11:42:45,42.805,6.029,4330,1995,196.993,60.240,13.286
2017-12-06T11:45:45,42.805,6.029,4330,1995,196.906,60.214,13.286
2017-12-06T11:48:45,42.805,6.029,4330,1995,196.903,60.213,13.286
2017-12-06T11:51:45,42.805,6.029,4330,1995,196.861,60.200,13.286
2017-12-06T11:54:45,42.805,6.029,4330,1995,196.928,60.221,13.286
2017-12-06T11:57:45,42.805,6.029,4330,1995,196.889,60.209,13.286
2017-12-06T12:00:45,42.805,6.029,4330,1995,196.853,60.198,13.286
2017-12-06T12:03:45,42.805,6.029,4330,1995,196.835,60.192,13.286
2017-12-06T12:06:45,42.805,6.029,4330,1995,196.844,60.195,13.286
2017-12-06T12:09:45,42.805,6.029,4330,1995,196.866,60.202,13.286
2017-12-06T12:12:45,42.805,6.029,4330,1995,196.852,60.197,13.286
2017-12-06T12:15:45,42.805,6.029,4330,1995,196.847,60.196,13.286
2017-12-06T12:18:45,42.805,6.029,4330,1995,196.788,60.178,13.286
2017-12-06T12:21:45,42.805,6.029,4330,1995,196.827,60.190,13.286
2017-12-06T12:24:45,42.805,6.029,4330,1995,196.780,60.176,13.286
2017-12-06T12:27:45,42.805,6.029,4330,1995,196.758,60.169,13.286
2017-12-06T12:30:45,42.805,6.029,4330,1995,196.735,60.162,13.286
2017-12-06T12:33:45,42.805,6.029,4330,1995,196.671,60.142,13.286
2017-12-06T12:36:45,42.805,6.029,4330,1995,196.621,60.126,13.286
2017-12-06T12:39:45,42.805,6.029,4330,1995,196.662,60.140,13.286
2017-12-06T12:42:45,42.805,6.029,4330,1995,196.598,60.120,13.286
2017-12-06T12:45:45,42.805,6.029,4330,1995,196.662,60.139,13.286
2017-12-06T12:48:45,42.805,6.029,4330,1995,196.660,60.139,13.286
2017-12-06T12:51:45,42.805,6.029,4330,1995,196.719,60.156,13.286
2017-12-06T12:54:45,42.805,6.029,4330,1995,196.641,60.133,13.286
2017-12-06T12:57:45,42.805,6.029,4330,1995,196.649,60.135,13.286
2017-12-06T13:00:44,42.805,6.029,4330,1995,196.604,60.122,13.286
2017-12-06T13:03:44,42.805,6.029,4330,1995,196.635,60.131,13.286
2017-12-06T13:06:44,42.805,6.029,4330,1995,196.610,60.123,13.286
2017-12-06T13:09:44,42.805,6.029,4330,1995,196.649,60.136,13.286
2017-12-06T13:12:44,42.805,6.029,4330,1995,196.640,60.133,13.286
2017-12-06T13:15:44,42.805,6.029,4330,1995,196.593,60.118,13.286
2017-12-06T13:18:44,42.805,6.029,4330,1995,196.554,60.106,13.286
2017-12-06T13:21:44,42.805,6.029,4330,1995,196.538,60.101,13.286
2017-12-06T13:24:44,42.805,6.029,4330,1995,196.447,60.073,13.286
2017-12-06T13:27:44,42.805,6.029,4330,1995,196.459,60.077,13.286
2017-12-06T13:30:44,42.805,6.029,4330,1995,196.402,60.060,13.286
2017-12-06T13:33:44,42.805,6.029,4330,1995,196.386,60.055,13.286
2017-12-06T13:36:44,42.805,6.029,4330,1995,196.400,60.059,13.286
2017-12-06T13:39:44,42.805,6.029,4330,1995,196.392,60.057,13.286
2017-12-06T13:42:44,42.805,6.029,4330,1995,196.615,60.124,13.286
2017-12-06T13:45:44,42.805,6.029,4330,1995,196.651,60.135,13.285
2017-12-06T13:48:44,42.805,6.029,4330,1995,196.501,60.090,13.286
2017-12-06T13:51:44,42.805,6.029,4330,1995,196.595,60.119,13.286
2017-12-06T13:54:44,42.805,6.029,4330,1995,196.477,60.082,13.286
2017-12-06T13:57:44,42.805,6.029,4330,1995,196.388,60.055,13.286
2017-12-06T14:00:44,42.805,6.029,4330,1995,196.348,60.043,13.286
2017-12-06T14:03:44,42.805,6.029,4330,1995,196.260,60.016,13.286
2017-12-06T14:06:44,42.805,6.029,4330,1995,196.244,60.011,13.285
2017-12-06T14:09:44,42.805,6.029,4330,1995,196.325,60.035,13.285
2017-12-06T14:12:44,42.805,6.029,4330,1995,196.247,60.012,13.286
2017-12-06T14:15:44,42.805,6.029,4330,1995,196.035,59.947,13.286
2017-12-06T14:18:44,42.805,6.029,4330,1995,196.028,59.945,13.286
2017-12-06T14:21:44,42.805,6.029,4330,1995,196.007,59.939,13.286
2017-12-06T14:24:44,42.805,6.029,4330,1995,195.924,59.913,13.286
2017-12-06T14:27:44,42.805,6.029,4330,1995,195.784,59.871,13.286
2017-12-06T14:30:44,42.805,6.029,4330,1995,195.753,59.862,13.287
2017-12-06T14:33:44,42.805,6.029,4330,1995,195.847,59.890,13.286
2017-12-06T14:36:44,42.805,6.029,4330,1995,195.784,59.870,13.286
2017-12-06T14:39:44,42.805,6.029,4330,1995,196.162,59.986,13.286
2017-12-06T14:42:44,42.805,6.029,4330,1995,196.213,60.001,13.286
2017-12-06T14:45:44,42.805,6.029,4330,1995,196.194,59.996,13.286
2017-12-06T14:48:44,42.805,6.029,4330,1995,196.405,60.060,13.285
2017-12-06T14:51:44,42.805,6.029,4330,1995,196.431,60.068,13.285
2017-12-06T14:54:44,42.805,6.029,4330,1995,196.333,60.038,13.286
2017-12-06T14:57:44,42.805,6.029,4330,1995,196.252,60.014,13.286
2017-12-06T15:00:44,42.805,6.029,4330,1995,196.161,59.986,13.286
2017-12-06T15:03:44,42.805,6.029,4330,1995,196.122,59.974,13.286
2017-12-06T15:06:44,42.805,6.029,4330,1995,196.126,59.975,13.286
2017-12-06T15:09:44,42.805,6.029,4330,1995,196.224,60.005,13.286
2017-12-06T15:12:44,42.805,6.029,4330,1995,196.188,59.994,13.286
2017-12-06T15:15:44,42.805,6.029,4330,1995,196.265,60.018,13.286
2017-12-06T15:18:44,42.805,6.029,4330,1995,196.289,60.025,13.286
2017-12-06T15:21:44,42.805,6.029,4330,1995,196.273,60.020,13.286
2017-12-06T15:24:44,42.805,6.029,4330,1995,196.234,60.008,13.286
2017-12-06T15:27:44,42.805,6.029,4330,1995,196.118,59.974,13.286
2017-12-06T15:30:44,42.805,6.029,4330,1995,196.260,60.016,13.286
2017-12-06T15:33:44,42.805,6.029,4330,1995,196.167,59.988,13.286
2017-12-06T15:36:44,42.805,6.029,4330,1995,196.178,59.991,13.286
2017-12-06T15:39:44,42.805,6.029,4330,1995,196.118,59.973,13.286
2017-12-06T15:42:44,42.805,6.029,4330,1995,196.094,59.965,13.286
2017-12-06T15:45:44,42.805,6.029,4330,1995,195.851,59.891,13.286
2017-12-06T15:48:44,42.805,6.029,4330,1995,195.978,59.930,13.286
2017-12-06T15:51:44,42.805,6.029,4330,1995,195.755,59.862,13.286
2017-12-06T15:54:44,42.805,6.029,4330,1995,195.721,59.851,13.286
2017-12-06T15:57:44,42.805,6.029,4330,1995,195.673,59.836,13.286
2017-12-06T16:00:44,42.805,6.029,4330,1995,195.743,59.858,13.286
2017-12-06T16:03:44,42.805,6.029,4330,1995,195.731,59.855,13.286
2017-12-06T16:06:44,42.805,6.029,4330,1995,195.690,59.842,13.286
2017-12-06T16:09:44,42.805,6.029,4330,1995,195.699,59.844,13.286
2017-12-06T16:12:44,42.805,6.029,4330,1995,195.752,59.861,13.286
2017-12-06T16:15:44,42.805,6.029,4330,1995,195.638,59.826,13.286
2017-12-06T16:18:44,42.805,6.029,4330,1995,195.757,59.862,13.286
2017-12-06T16:21:44,42.805,6.029,4330,1995,195.701,59.845,13.286
2017-12-06T16:24:44,42.805,6.029,4330,1995,195.681,59.839,13.286
2017-12-06T16:27:44,42.805,6.029,4330,1995,195.809,59.878,13.286
2017-12-06T16:30:44,42.805,6.029,4330,1995,195.666,59.835,13.286
2017-12-06T16:33:44,42.805,6.029,4330,1995,195.654,59.831,13.286
2017-12-06T16:36:44,42.805,6.029,4330,1995,195.720,59.853,13.287
2017-12-06T16:39:44,42.805,6.029,4330,1995,195.777,59.869,13.286
2017-12-06T16:42:44,42.805,6.029,4330,1995,195.636,59.826,13.286
2017-12-06T16:45:44,42.805,6.029,4330,1995,195.695,59.843,13.286
2017-12-06T16:48:44,42.805,6.029,4330,1995,195.709,59.847,13.286
2017-12-06T16:51:44,42.805,6.029,4330,1995,195.630,59.823,13.286
2017-12-06T16:54:44,42.805,6.029,4330,1995,195.852,59.891,13.286
2017-12-06T16:57:44,42.805,6.029,4330,1995,195.820,59.882,13.286
2017-12-06T17:00:44,42.805,6.029,4330,1995,195.747,59.859,13.286
2017-12-06T17:03:44,42.805,6.029,4330,1995,195.589,59.811,13.286
2017-12-06T17:06:44,42.805,6.029,4330,1995,195.711,59.848,13.286
2017-12-06T17:09:44,42.805,6.029,4330,1995,195.793,59.873,13.286
2017-12-06T17:12:44,42.805,6.029,4330,1995,195.794,59.873,13.286
2017-12-06T17:15:44,42.805,6.029,4330,1995,195.829,59.885,13.286
2017-12-06T17:18:44,42.805,6.029,4330,1995,195.792,59.873,13.286
2017-12-06T17:21:44,42.805,6.029,4330,1995,195.936,59.918,13.287
2017-12-06T17:24:44,42.805,6.029,4330,1995,195.791,59.872,13.286
2017-12-06T17:27:44,42.805,6.029,4330,1995,195.830,59.885,13.286
2017-12-06T17:30:44,42.805,6.029,4330,1995,195.853,59.892,13.286
2017-12-06T17:33:44,42.805,6.029,4330,1995,195.658,59.832,13.286
2017-12-06T17:36:44,42.805,6.029,4330,1995,195.689,59.842,13.286
2017-12-06T17:39:44,42.805,6.029,4330,1995,195.670,59.837,13.286
2017-12-06T17:42:44,42.805,6.029,4330,1995,195.803,59.878,13.287
2017-12-06T17:45:44,42.805,6.029,4330,1995,195.794,59.874,13.286
2017-12-06T17:48:44,42.805,6.029,4330,1995,195.744,59.858,13.286
2017-12-06T17:51:44,42.805,6.029,4330,1995,195.685,59.840,13.286
2017-12-06T17:54:44,42.805,6.029,4330,1995,195.522,59.791,13.286
2017-12-06T17:57:44,42.805,6.029,4330,1995,195.698,59.844,13.286
2017-12-06T18:00:44,42.805,6.029,4330,1995,195.868,59.896,13.286
2017-12-06T18:03:44,42.805,6.029,4330,1995,195.841,59.887,13.286
2017-12-06T18:06:44,42.805,6.029,4330,1995,195.917,59.911,13.286